Regional Weather Roundup
Issued by NWS Kansas City/Pleasant Hill, MO

Home | Current Version | Previous Version | Graphics & Text | Print | Product List | Glossary Off
Versions: 1 2 3 4 5 6 7 8 9 10 11 12 13 14 15 16 17 18 19 20 21 22 23 24 25 26 27 28 29 30 31 32 33 34 35 36 37 38 39 40 41 42 43 44 45 46 47 48 49 50

000
ASUS43 KEAX 030804
RWREAX

WEATHER ROUNDUP FOR EASTERN KANSAS AND NORTHWEST MISSOURI
NATIONAL WEATHER SERVICE KANSAS CITY/PLEASANT HILL MO
300 AM CDT FRI JUL 03 2015

KSZ040-057-103>105-MOZ028-029-037-043-030900-
...KANSAS CITY METROPOLITAN AREA...

CITY           SKY/WX    TMP DP  RH WIND       PRES   REMARKS
K.C. INTL      MOCLDY    66  63  90 NE8       29.93S
K.C. DOWNTOWN  CLOUDY    69  61  75 E9        29.91F
LEES SUMMIT    CLOUDY    67  61  81 E8        29.93F
OLATHE - IXD   LGT RAIN  68  66  93 E6        29.92F FOG
OLATHE - OJC   CLOUDY    67  65  93 E3        29.91F
LAWRENCE       HVY RAIN  67  66  97 E9        29.92S FOG

$$

MOZ001>008-011>017-020>025-030>033-038>040-044>046-053-054-030900-
...NORTHERN AND CENTRAL MISSOURI...

CITY           SKY/WX    TMP DP  RH WIND       PRES   REMARKS
ST. JOSEPH     CLOUDY    66  61  84 E6        29.94F
MOSBY          CLOUDY    66  61  82 CALM      29.93S
WHITEMAN AFB   MOCLDY    67  63  87 VRB1      29.91F
CLINTON        CLOUDY    70  66  88 NE7       29.92S
SEDALIA        MOCLDY    67  62  84 E3        29.93F
WARSAW         NOT AVBL
CHILLICOTHE      N/A     63  61  93 CALM      29.96F
KIRKSVILLE     HVY RAIN  63  60  90 NE3       29.96F

$$

MOZ041-047>049-056>058-063>065-088>090-097-030900-
...EASTERN AND SOUTHERN MISSOURI...

CITY           SKY/WX    TMP DP  RH WIND       PRES   REMARKS
ST. LOUIS INTL MOCLDY    69  62  78 CALM      29.90F
SPIRIT OF STL  CLOUDY    68  64  87 CALM      29.88F
COLUMBIA       CLOUDY    67  62  84 NE5       29.92F
JEFFERSON CITY CLOUDY    67  62  84 NE3       29.92S
MEXICO         PTCLDY   N/A N/A N/A CALM      29.93F
ROLLA          CLOUDY    66  64  93 NE6       29.90F
LEBANON        MOCLDY    70  66  88 E3        29.93S
OSAGE BEACH    CLOUDY    70  66  88 N5        29.91S
SPRINGFIELD    PTCLDY    71  68  90 N3        29.90F
BRANSON        PTCLDY    68  66  94 CALM      29.93S
JOPLIN         PTCLDY    71  70  96 S3        29.91S FOG
WEST PLAINS    CLOUDY    71  68  90 NE6       29.91F
MALDEN         LGT RAIN  73  70  88 W8        29.87S

$$

IAZ060-094-KSZ022-034>040-054-083-096-NEZ052-066-093-030900-
...KANSAS...SOUTHEAST NEBRASKA AND IOWA...

CITY           SKY/WX    TMP DP  RH WIND       PRES   REMARKS
TOPEKA         CLOUDY    69  68  96 E6        29.92S FOG
MANHATTAN      CLOUDY    70  69  97 E10       29.92R
EMPORIA        LGT RAIN  70  67  90 NE5       29.91S
CHANUTE        PTCLDY    69  69 100 E3        29.90S FOG
WICHITA        PTCLDY    69  66  90 CALM      29.92F
OMAHA          MOCLDY    60  57  89 N6        29.99S
LINCOLN        CLOUDY    67  64  90 NE10      29.98S
FALLS CITY     CLOUDY    65  60  84 E6        29.95S
LAMONI         MOCLDY    62  58  86 N5        29.97F
DES MOINES     CLOUDY    63  54  72 CALM      29.98F

$$



USA.gov is the U.S. government's official web portal to all federal, state and local government web resources and services.